Rafha Domestic Airport
OERF : now visible

Airfield :











YOU CAN JOIN US ON...

 
LOGIN :

Register | Disclaimer

   EN    FR    IT 

 









Legend :    VFR   Marginal VFR   IFR   Intensive IFR   Very Intensive IFR
Visi :
Ceiling :
>= 8 km
>= 3000ft
5 to 8 km
1000 to 3000 ft
1500m to 5 km
500 to 1000 ft
800 to 1500m
200 to 500 ft
< 800m
< 200 ft
Symbols :   Thunderstorms  Fog  Heavy snow  Heavy precipitations  Wind > 20 kt






- Airport Elevation : 1474 ft
- IATA code : RAH


OERF - Rafha Domestic

CURRENT METAR :
  • 220200Z 22002KT CAVOK 28/M03 Q1009

EXPIRED METARs :
  • 220100Z 00000KT CAVOK 28/M03 Q1009
  • 220000Z 15004KT CAVOK 30/M03 Q1009

TAF TAF OERF
Valid from the 22 at 00:00 until the 23 at 06:00 UTC


212300Z 2200/2306 27006KT CAVOK
BECMG 2206/2208 36012KT
TEMPO 2208/2216 5000 BLDU
BECMG 2218/2220 06006KT
OEJD FIR / Asia



MET'MAP, your aeronautical weather chart ! - Copyright ORBIFLY December 2007 - Disclaimer

ORBIFLY MET'MAP TEAM :

Programming & Development : Alexandra Zaïnal
Concept & original design : Baudouin d'Aumeries
Assistance for programming : Marc-Olivier Méhu
Technical & hardware support : Manuel Goepfert

Contact : metmap@orbifly.com




SOURCES & CREDITS :

   NOAA       Earth
Advisory